TimeCST,TemperatureF,Dew PointF,Humidity,Sea Level PressureIn,VisibilityMPH,Wind Direction,Wind SpeedMPH,Gust SpeedMPH,PrecipitationIn,Events,Conditions,WindDirDegrees,DateUTC
12:53 AM,37.9,21.9,53,29.94,10.0,SSW,6.9,-,N/A,,Overcast,200,2012-12-13 06:53:00
1:53 AM,37.9,21.0,51,29.95,10.0,South,8.1,-,N/A,,Overcast,190,2012-12-13 07:53:00
2:53 AM,37.0,21.0,52,29.95,10.0,South,5.8,-,N/A,,Overcast,180,2012-12-13 08:53:00
3:53 AM,36.0,19.9,52,29.95,10.0,South,6.9,-,N/A,,Mostly Cloudy,190,2012-12-13 09:53:00
4:53 AM,35.1,19.9,54,29.95,10.0,South,5.8,-,N/A,,Mostly Cloudy,190,2012-12-13 10:53:00
5:53 AM,33.8,19.4,56,29.93,10.0,South,6.9,-,N/A,,Partly Cloudy,190,2012-12-13 11:53:00
6:53 AM,34.0,19.0,54,29.97,10.0,South,5.8,-,N/A,,Partly Cloudy,190,2012-12-13 12:53:00
7:53 AM,32.0,19.0,59,29.97,10.0,Calm,Calm,-,N/A,,Partly Cloudy,0,2012-12-13 13:53:00
8:53 AM,32.0,19.0,59,29.99,10.0,Calm,Calm,-,N/A,,Partly Cloudy,0,2012-12-13 14:53:00
9:53 AM,32.0,19.9,61,30.01,10.0,NW,3.5,-,N/A,,Mostly Cloudy,310,2012-12-13 15:53:00
10:53 AM,33.1,19.9,59,30.02,10.0,Calm,Calm,-,N/A,,Mostly Cloudy,0,2012-12-13 16:53:00
11:53 AM,34.0,21.0,59,30.03,10.0,WSW,3.5,-,N/A,,Mostly Cloudy,250,2012-12-13 17:53:00
12:53 PM,34.0,23.0,64,30.03,10.0,NNW,5.8,-,N/A,,Scattered Clouds,340,2012-12-13 18:53:00
1:53 PM,36.0,23.0,59,30.03,10.0,NNW,3.5,-,N/A,,Partly Cloudy,330,2012-12-13 19:53:00
2:53 PM,37.0,21.9,54,30.04,10.0,Calm,Calm,-,N/A,,Partly Cloudy,0,2012-12-13 20:53:00
3:53 PM,35.1,24.1,64,30.06,10.0,North,6.9,-,N/A,,Partly Cloudy,350,2012-12-13 21:53:00
5:53 PM,30.2,24.8,80,30.08,8.0,North,5.8,-,N/A,,Partly Cloudy,360,2012-12-13 23:53:00
6:53 PM,28.4,24.8,86,30.10,7.0,North,3.5,-,N/A,,Scattered Clouds,350,2012-12-14 00:53:00
7:53 PM,27.0,23.0,85,30.14,7.0,Calm,Calm,-,N/A,,Scattered Clouds,0,2012-12-14 01:53:00
8:53 PM,27.0,24.1,89,30.13,7.0,NNE,4.6,-,N/A,,Scattered Clouds,20,2012-12-14 02:53:00
9:53 PM,27.0,23.0,85,30.14,8.0,North,3.5,-,N/A,,Mostly Cloudy,10,2012-12-14 03:53:00
10:53 PM,25.0,21.0,85,30.15,7.0,North,4.6,-,N/A,,Overcast,360,2012-12-14 04:53:00
11:53 PM,25.0,21.0,85,30.16,7.0,Calm,Calm,-,N/A,,Mostly Cloudy,0,2012-12-14 05:53:00